TimeCST,TemperatureF,Dew PointF,Humidity,Sea Level PressureIn,VisibilityMPH,Wind Direction,Wind SpeedMPH,Gust SpeedMPH,PrecipitationIn,Events,Conditions,WindDirDegrees,DateUTC
12:53 AM,21.0,14.0,74,30.13,10.0,WNW,10.4,-,N/A,,Clear,300,2012-12-29 06:53:00
1:38 AM,19.4,14.0,80,30.12,10.0,WNW,12.7,-,N/A,,Mostly Cloudy,290,2012-12-29 07:38:00
1:53 AM,19.9,12.9,74,30.15,9.0,WNW,11.5,-,N/A,,Mostly Cloudy,290,2012-12-29 07:53:00
2:53 AM,19.9,14.0,78,30.17,9.0,NW,9.2,-,N/A,,Overcast,310,2012-12-29 08:53:00
3:53 AM,21.0,14.0,74,30.19,9.0,WNW,10.4,-,N/A,,Overcast,290,2012-12-29 09:53:00
4:53 AM,21.0,14.0,74,30.20,9.0,WNW,11.5,-,N/A,,Overcast,300,2012-12-29 10:53:00
5:53 AM,21.0,14.0,74,30.24,9.0,NNW,13.8,20.7,N/A,,Overcast,340,2012-12-29 11:53:00
6:53 AM,21.0,14.0,74,30.27,8.0,North,-9999.0,-,N/A,,Overcast,0,2012-12-29 12:53:00
7:53 AM,21.0,14.0,74,30.30,7.0,WNW,8.1,-,N/A,,Overcast,300,2012-12-29 13:53:00
8:53 AM,19.9,14.0,78,30.33,7.0,West,8.1,-,N/A,,Mostly Cloudy,270,2012-12-29 14:53:00
9:53 AM,21.0,15.1,78,30.35,8.0,West,8.1,-,N/A,,Partly Cloudy,280,2012-12-29 15:53:00
10:53 AM,25.0,15.1,66,30.37,10.0,West,11.5,-,N/A,,Clear,280,2012-12-29 16:53:00
11:53 AM,28.0,15.1,58,30.35,10.0,WNW,11.5,16.1,N/A,,Clear,290,2012-12-29 17:53:00
12:53 PM,30.9,15.1,52,30.33,10.0,WNW,10.4,-,N/A,,Clear,290,2012-12-29 18:53:00
1:53 PM,33.1,14.0,46,30.32,10.0,West,10.4,-,N/A,,Clear,280,2012-12-29 19:53:00
2:53 PM,35.1,15.1,44,30.33,10.0,West,11.5,-,N/A,,Clear,270,2012-12-29 20:53:00
3:53 PM,35.1,15.1,44,30.35,10.0,West,6.9,-,N/A,,Clear,280,2012-12-29 21:53:00
4:53 PM,33.8,15.8,48,30.33,10.0,West,8.1,-,N/A,,Clear,280,2012-12-29 22:53:00
5:53 PM,28.9,14.0,54,30.37,10.0,SW,4.6,-,N/A,,Clear,230,2012-12-29 23:53:00
6:53 PM,24.8,14.0,64,30.34,10.0,South,5.8,-,N/A,,Clear,190,2012-12-30 00:53:00
7:53 PM,25.0,14.0,63,30.39,10.0,South,5.8,-,N/A,,Clear,190,2012-12-30 01:53:00
8:53 PM,21.9,14.0,72,30.38,10.0,SSW,6.9,-,N/A,,Clear,200,2012-12-30 02:53:00
9:53 PM,24.1,15.1,69,30.39,10.0,SSW,9.2,-,N/A,,Clear,200,2012-12-30 03:53:00
10:53 PM,23.0,15.1,72,30.41,10.0,SSW,8.1,-,N/A,,Clear,200,2012-12-30 04:53:00
11:53 PM,21.2,14.0,74,30.38,10.0,SSW,6.9,-,N/A,,Clear,200,2012-12-30 05:53:00